Regional Weather Roundup
Issued by NWS Jackson, KY

Home | Current Version | Previous Version | Text Only | Print | Product List | Glossary On
Versions: 1 2 3 4 5 6 7 8 9 10 11 12 13 14 15 16 17 18 19 20 21 22 23 24 25 26 27 28 29 30 31 32 33 34 35 36 37 38 39 40 41 42 43 44 45 46 47 48 49 50
000
ASUS43 KJKL 192310
RWRJKL

EAST KENTUCKY HOURLY WEATHER ROUNDUP
NATIONAL WEATHER SERVICE JACKSON KY
600 PM EST FRI JAN 19 2018

NOTE: "FAIR" INDICATES FEW OR NO CLOUDS BELOW 12,000 FEET WITH
NO SIGNIFICANT WEATHER AND/OR OBSTRUCTIONS TO VISIBILITY.

* THESE REPORTS ARE NOT UNDER NWS QUALITY CONTROL AND MAY NOT
  REPORT WEATHER SUCH AS PRECIPITATION AND FOG.

KYZ079-080-083-085-087-088-110-112-115-119-120-200000
...EASTERN KENTUCKY...

CITY           SKY/WX    TMP DP  RH WIND       PRES   REMARKS
JACKSON          N/A     39  12  33 SW5       30.12S
LONDON           N/A     42  11  28 S5        30.14S
SOMERSET*        N/A     37  14  38 W7        30.17S WCI  32
MONTICELLO*      N/A     38  17  42 W14       30.18S WCI  30
WILLIAMSBURG*    N/A     39  18  41 SE7       30.16R WCI  34
MIDDLESBORO*     N/A     37  17  44 CALM      30.19S
HARLAN APT*      N/A     39  10  30 SE3       30.16S
PIKE CO APT*     N/A     43   7  22 CALM      30.11S
BIG SANDY APT*   N/A     43   8  23 CALM      30.12R
MOREHEAD APT*    N/A     37  19  48 SW7       30.12F WCI  32
$$

KYZ035-036-041-042-044-050-067-078-099-200000
...CENTRAL KENTUCKY...

CITY           SKY/WX    TMP DP  RH WIND       PRES   REMARKS
MT STERLING*     N/A     36  19  51 SW10      30.13F WCI  28
FLEMING/MASON*   N/A     33  19  56 SW8       30.11S WCI  26
DANVILLE*        N/A     34  18  51 SW7       30.14F WCI  28
LEXINGTON        N/A     37  19  48 S12       30.11F WCI  29
FRANKFORT        N/A     38  17  42 S12       30.09F WCI  30
LOUISVILLE     MOCLDY    41  22  46 S13       30.09F
LEBANON*         N/A     37  18  44 S9        30.13F WCI  31
GLASGOW*         N/A     40  20  45 S6        30.15S
BOWLING GREEN    N/A     40  23  50 S8        30.16R WCI  34
$$

KYZ091>093-OHZ055-061-077-WVZ005-015-034-035-042-200000
...SOUTHERN OHIO/WEST VIRGINIA...

CITY           SKY/WX    TMP DP  RH WIND       PRES   REMARKS
COVINGTON        N/A     36  21  54 S12       30.04F WCI  28
COLUMBUS         N/A     36  19  50 S9        30.03F WCI  29
DAYTON           N/A     36  21  54 S14       29.99F WCI  27
WILMINGTON       N/A     32  20  61 S12       30.03S WCI  23
HUNTINGTON       N/A     40  15  36 S6        30.10F
CHARLESTON       N/A     39  12  33 S6        30.11S WCI  35
BECKLEY          N/A     37   4  25 SW5       30.08S WCI  33
BLUEFIELD        N/A     37  -2  19 W8        30.09S WCI  31
LOGAN CO APT*    N/A     41   9  26 CALM      30.10S
$$

VAZ002-007-008-TNZ017-027-036-066-071-200000
...SOUTHWEST VIRGINIA/EAST TENNESSEE...

CITY           SKY/WX    TMP DP  RH WIND       PRES   REMARKS
WISE*            N/A     34  16  47 S5        30.13S WCI  30
JONESVILLE*      N/A     37  14  38 CALM      30.20S
ABINGDON*        N/A     38   8  28 CALM      30.16S
BRISTOL          N/A     40  10  29 W6        30.18S
MORRISTOWN*    CLEAR     43  10  26 CALM      30.18S
SEVIERVILLE*   CLEAR     41  16  36 CALM      30.19S
KNOXVILLE        N/A     43  12  28 W6        30.18F
LAFOLLETTE*    CLEAR     37  14  38 CALM      30.21F
OAK RIDGE        N/A     41  15  35 CALM      30.21F
CROSSVILLE       N/A     41  11  29 S3        30.17S
NASHVILLE        N/A     45  21  38 SW9       30.18F
$$

...KEY TO REMARKS...
VSB - VISIBILITY IN MILES
WCI - WIND CHILL INDEX
HX  - HEAT INDEX

$$



USA.gov is the U.S. government's official web portal to all federal, state and local government web resources and services.